Home   Weather   Sarajevo   Past weeks
Flag for Bosnia-Herzegovina

Past Weather in Sarajevo, Bosnia-Herzegovina — Yesterday and Last 2 Weeks

Now
50 °F

Clear.


Feels Like: 50 °F
Forecast: 72 / 47 °F
Wind: 1 mph from North

Location: Sarajevo / Butmir

Current Time: Oct 13, 2019 at 10:32:55 pm

Latest Report: Oct 13, 2019 at 10:00 pm


Visibility: 4 mi

Pressure: 30.24 "Hg (28.38 "Hg at 526m altitude)

Humidity: 94%

Dew Point: 48 °F

Location of SarajevoLocation

Past Weather in Sarajevo — Graph

°F

Sarajevo Temperature Yesterday

Maximum temperature yesterday: 73 °F (at 4:00 pm)
Minimum temperature yesterday: 45 °F (at 2:00 am)
Average temperature yesterday: 54 °F

High & Low Weather Summary for the Past Weeks

 TemperatureHumidityPressure
High81 °F (Sep 29, 4:00 pm)100% (Sep 29, 12:00 am)30.30 "Hg (Sep 29, 12:00 am)
Low34 °F (Oct 9, 6:30 am)25% (Oct 9, 3:00 pm)29.71 "Hg (Oct 2, 3:30 pm)
Average55 °F78%30.02 "Hg
* Reported Sep 28 9:00 pm — Oct 13 9:00 pm, Sarajevo. Weather by CustomWeather, © 2019

Note: Actual official high and low records may vary slightly from our data, if they occured in-between our weather recording intervals... More about our weather records

Advertising

Sarajevo Weather History for the Previous 24 Hours

Scroll right to see more
 ConditionsComfort  
Time TempWeatherWind HumidityBarometerVisibility
9:00 pm
Sun, Oct 13
52 °FClear.1 mph94%30.21 "Hg10 mi
8:30 pm54 °FClear.No wind88%30.21 "Hg10 mi
8:00 pm54 °FClear.2 mph94%30.21 "Hg10 mi
7:30 pm55 °FClear.5 mph82%30.21 "Hg10 mi
7:00 pm57 °FClear.3 mph82%30.21 "Hg10 mi
6:30 pm61 °FClear.2 mph72%30.18 "Hg10 mi
6:00 pm64 °FSunny.2 mph60%30.18 "Hg10 mi
5:30 pm68 °FSunny.1 mph56%30.18 "Hg10 mi
5:00 pm72 °FSunny.3 mph47%30.18 "Hg10 mi
4:30 pm73 °FSunny.2 mph41%30.18 "Hg10 mi
4:00 pm75 °FSunny.2 mph41%30.18 "Hg10 mi
3:30 pm73 °FSunny.2 mph41%30.18 "Hg10 mi
3:00 pm73 °FSunny.2 mph41%30.18 "Hg10 mi
2:30 pm72 °FPassing clouds.3 mph41%30.18 "HgN/A
2:00 pm70 °FSunny.2 mph43%30.21 "Hg10 mi
1:30 pm68 °FSunny.2 mph46%30.21 "Hg10 mi
1:00 pm68 °FSunny.1 mph49%30.21 "Hg10 mi
12:30 pm64 °FSunny.1 mph56%30.24 "Hg10 mi
12:00 pm61 °FSunny.2 mph59%30.24 "Hg10 mi
11:30 am57 °FSunny.1 mph67%30.24 "Hg10 mi
11:00 am54 °FSunny.2 mph77%30.24 "Hg10 mi
10:30 am52 °FClear.1 mph82%30.27 "Hg5 mi
10:00 am46 °FPassing clouds.1 mph100%30.27 "Hg4 mi
9:30 am45 °FQuite cool.1 mph100%30.27 "Hg1 mi
9:00 am41 °FFog.1 mph100%30.27 "Hg1 mi
8:30 am41 °FFog.1 mph100%30.27 "Hg0 mi
8:00 am41 °FFog.2 mph100%30.27 "Hg0 mi
7:30 am39 °FFog.No wind100%30.27 "Hg0 mi
7:00 am39 °FScattered clouds.3 mph100%30.24 "Hg4 mi
6:30 am37 °FPassing clouds.No wind100%30.24 "Hg4 mi
6:00 am39 °FFog.1 mph100%30.24 "Hg3 mi
5:30 am39 °FFog.2 mph100%30.24 "Hg3 mi
5:00 am39 °FFog.No wind100%30.24 "Hg3 mi
4:00 am41 °FClear.No wind100%30.24 "Hg4 mi
3:00 am41 °FClear.1 mph100%30.27 "Hg4 mi
2:00 am43 °FClear.1 mph100%30.27 "Hg4 mi
1:00 am45 °FClear.2 mph100%30.27 "Hg5 mi
12:00 am45 °FClear.3 mph100%30.27 "Hg5 mi
11:00 pm
Sat, Oct 12
46 °FClear.1 mph100%30.24 "Hg5 mi
10:30 pm48 °FClear.1 mph94%30.24 "Hg5 mi
10:00 pm50 °FClear.1 mph94%30.24 "Hg5 mi
Weather by CustomWeather, © 2019

See weather overview